Regional Weather Roundup
Issued by NWS Northern Indiana

Home | Current Version | Previous Version | Graphics & Text | Print | Product List | Glossary On
Versions: 1 2 3 4 5 6 7 8 9 10 11 12 13 14 15 16 17 18 19 20 21 22 23 24 25 26 27 28 29 30 31 32 33 34 35 36 37 38 39 40 41 42 43 44 45 46 47 48 49 50
000
ASUS43 KIWX 031100
RWRIWX

KIWX WEATHER ROUNDUP
NATIONAL WEATHER SERVICE NORTHERN INDIANA
600 AM EST SAT DEC 03 2016

NOTE: "FAIR" INDICATES FEW OR NO CLOUDS BELOW 12,000 FEET WITH NO
SIGNIFICANT WEATHER AND/OR OBSTRUCTIONS TO VISIBILITY.

* THESE STATIONS ARE NOT UNDER NWS QUALITY CONTROL. THEY ALSO MAY NOT
  REPORT WEATHER SUCH AS PRECIPITATION OR FOG.

INZ001>027-031200-
NORTHERN INDIANA

CITY           SKY/WX    TMP DP  RH WIND       PRES   REMARKS
GARY*          CLOUDY    34  25  69 W7        30.35R WCI  28
SOUTH BEND     CLOUDY    34  28  79 W5        30.32  WCI  30
GOSHEN         CLOUDY    35  27  72 W8        30.31R WCI  29
MONTICELLO*    CLOUDY    34  26  71 W3        30.33S
ANGOLA*        CLOUDY    36  28  75 W3        30.29R
FORT WAYNE     CLOUDY    35  30  82 W6        30.32R WCI  30
PERU/GRISSOM   CLOUDY    35  28  76 NW5       30.31S WCI  31

$$
INZ028>050-031200-
CENTRAL INDIANA

CITY           SKY/WX    TMP DP  RH WIND       PRES   REMARKS
LAFAYETTE      CLOUDY    34  28  79 W13       30.35  WCI  25
KOKOMO*        CLOUDY    35  29  78 W7        30.33S WCI  29
MUNCIE*        CLOUDY    37  30  75 W6        30.32S
INDIANAPOLIS   CLOUDY    37  27  67 W6        30.34

$$
MIZ043>046-050>051-056>058-064>065-071>073-077>080-031200-
SOUTHWEST LOWER MICHIGAN

CITY           SKY/WX    TMP DP  RH WIND       PRES   REMARKS
BATTLE CREEK   CLOUDY    35  31  85 W5        30.28S WCI  31
BENTON HARBOR  CLOUDY    37  27  67 W3        30.31R
HOLLAND        CLOUDY    37  29  72 W7        30.29S
GRAND RAPIDS   CLOUDY    35  30  82 W5        30.28S WCI  31
KALAMAZOO      CLOUDY    36  28  73 W3        30.29R

$$
OHZ001>008-015>018-024>025-031200-
NORTHWEST OHIO

CITY           SKY/WX    TMP DP  RH WIND       PRES   REMARKS
DEFIANCE       CLOUDY    36  28  73 CALM      30.31R
FINDLAY        CLOUDY    34  28  79 W6        30.29R WCI  29
TOLEDO EXPRESS CLOUDY    35  30  82 W7        30.29R WCI  29
TOLEDO METCALF CLOUDY    36  31  82 W6        30.30R
LIMA           CLOUDY    35  29  78 W7        30.30R WCI  29

$$
AND FOR LAKE MICHIGAN COASTAL AND OPEN LAKE BUOY OBSERVATIONS

STATION/POSITION TEMP    WIND        PRES    VSBY  WAVE
                 AIR SEA DIR/SP/G                  HT/PER
                 (F)     (DEG/KT/KT) (MB)    (MI)  (FT/S)
CALUMET HARBOR    33     240/  6/ 10 1026.7S
MICHIGAN CITY     36     230/ 15/ 17   N/A
BURNS HARBOR      35     250/ 10/ 13 1027.8R
SAINT JOSEPH      38     250/  5/ 11 1026.8
SOUTH LAKE BUOY   35 49  270/  6/  8 1026.5          2/ 5

$$
&&




USA.gov is the U.S. government's official web portal to all federal, state and local government web resources and services.